EW9394 Weather Reports


time (UTC)temp
C
wind
direction
speed
KPH
gust
KPH
rain 1hr
cm
rain 24hr
cm
rain mn
cm
humidity
%
barometer
mb
20260508050015 15 189 0.0 0.0 0.00 0.00 0.00 86 1017.1
20260508045512 15 189 0.0 0.0 0.00 0.00 0.00 85 1017.4
20260508045009 15 189 0.0 0.0 0.00 0.00 0.00 85 1017.5
20260508044506 16 189 0.0 0.0 0.00 0.00 0.00 85 1017.3
20260508044002 16 189 0.0 0.0 0.00 0.00 0.00 84 1017.3
20260508043459 16 189 0.0 0.0 0.00 0.00 0.00 84 1017.1
20260508042955 16 189 0.0 0.0 0.00 0.00 0.00 83 1017.1
20260508042453 16 189 0.0 0.0 0.00 0.00 0.00 83 1017.0
20260508041950 16 189 0.0 0.0 0.00 0.00 0.00 82 1017.3
20260508041446 16 189 0.0 0.0 0.00 0.00 0.00 82 1017.3
20260508040943 16 189 0.0 0.0 0.00 0.00 0.00 81 1017.0
20260508040440 16 189 0.0 0.0 0.00 0.00 0.00 81 1017.1
20260508035938 16 189 0.0 0.0 0.00 0.00 0.00 80 1017.0
20260508035435 16 189 0.0 0.0 0.00 0.00 0.00 80 1017.1
20260508034931 17 189 0.0 0.0 0.00 0.00 0.00 80 1017.1
20260508034429 16 189 0.0 0.0 0.00 0.00 0.00 79 1017.1
20260508033925 16 189 0.0 0.0 0.00 0.00 0.00 78 1017.1
20260508033424 17 189 0.0 0.0 0.00 0.00 0.00 78 1016.9
20260508032921 17 189 0.0 0.0 0.00 0.00 0.00 77 1017.1
20260508032418 17 189 0.0 0.0 0.00 0.00 0.00 76 1017.1
20260508031915 17 189 0.0 0.0 0.00 0.00 0.00 77 1017.0
20260508031412 17 189 0.0 0.0 0.00 0.00 0.00 76 1017.2
20260508030908 17 189 0.0 0.0 0.00 0.00 0.00 76 1016.9
20260508030405 17 189 0.0 0.0 0.00 0.00 0.00 75 1016.9
20260508025902 17 189 0.0 0.0 0.00 0.00 0.00 74 1016.7
20260508025359 17 189 0.0 0.0 0.00 0.00 0.00 73 1016.8
20260508024856 17 189 0.0 0.0 0.00 0.00 0.00 73 1017.0
20260508024352 17 189 0.0 0.0 0.00 0.00 0.00 73 1016.9
20260508023849 18 189 0.0 0.0 0.00 0.00 0.00 72 1016.8
20260508023346 18 189 0.0 0.0 0.00 0.00 0.00 72 1017.1
20260508022843 18 189 0.0 0.0 0.00 0.00 0.00 72 1016.7
20260508022338 18 189 0.0 0.0 0.00 0.00 0.00 72 1016.8
20260508021836 18 189 0.0 0.0 0.00 0.00 0.00 72 1016.7
20260508021332 18 188 0.0 0.0 0.00 0.00 0.00 71 1016.6
20260508020828 18 188 0.0 0.0 0.00 0.00 0.00 71 1016.5
20260508020326 18 187 1.6 1.6 0.00 0.00 0.00 70 1016.5
20260508015823 18 177 1.6 1.6 0.00 0.00 0.00 71 1016.4
20260508015320 18 185 0.0 0.0 0.00 0.00 0.00 71 1016.5
20260508014817 18 188 0.0 0.0 0.00 0.00 0.00 71 1016.5
20260508014314 18 188 0.0 0.0 0.00 0.00 0.00 70 1016.5
20260508013809 18 187 0.0 0.0 0.00 0.00 0.00 69 1016.5
20260508013306 18 193 0.0 0.0 0.00 0.00 0.00 69 1016.7
20260508012803 19 197 0.0 1.6 0.00 0.00 0.00 69 1016.5
20260508012300 19 196 0.0 1.6 0.00 0.00 0.00 68 1016.3
20260508011758 19 195 0.0 1.6 0.00 0.00 0.00 68 1016.3
20260508011255 19 194 0.0 0.0 0.00 0.00 0.00 68 1016.2
20260508010752 19 196 0.0 0.0 0.00 0.00 0.00 67 1016.5
20260508010250 19 200 0.0 0.0 0.00 0.00 0.00 67 1016.6
20260508005747 19 196 1.6 3.2 0.00 0.00 0.00 66 1016.3
20260508005244 20 196 0.0 0.0 0.00 0.00 0.00 66 1016.6
20260508004739 20 184 1.6 1.6 0.00 0.00 0.00 65 1016.4
20260508004236 20 193 1.6 1.6 0.00 0.00 0.00 65 1016.4
20260508003732 20 174 4.8 4.8 0.00 0.00 0.00 65 1016.7
20260508003230 20 195 1.6 1.6 0.00 0.00 0.00 65 1016.3
20260508002726 20 197 1.6 1.6 0.00 0.00 0.00 64 1016.5
20260508002224 20 186 0.0 1.6 0.00 0.00 0.00 64 1016.5
20260508001719 20 194 0.0 0.0 0.00 0.00 0.00 64 1016.4
20260508001215 20 133 1.6 3.2 0.00 0.00 0.00 64 1016.7
20260508000711 20 192 1.6 4.8 0.00 0.00 0.00 64 1016.5
20260508000211 20 180 6.4 8.0 0.00 0.00 0.00 64 1016.6
20260507235705 20 193 4.8 4.8 0.00 0.00 0.00 64 1016.4
20260507235203 20 197 3.2 3.2 0.00 0.00 0.00 64 1016.4
20260507234659 20 179 1.6 3.2 0.00 0.00 0.00 64 1016.6
20260507234156 20 192 4.8 8.0 0.00 0.00 0.00 64 1016.4
20260507233653 20 181 1.6 1.6 0.00 0.00 0.00 64 1016.4
20260507233151 20 185 1.6 3.2 0.00 0.00 0.00 63 1016.5
20260507232648 21 196 3.2 8.0 0.00 0.00 0.00 63 1016.4
20260507232145 21 205 3.2 3.2 0.00 0.00 0.00 62 1016.4
20260507231641 21 189 3.2 3.2 0.00 0.00 0.00 62 1016.6
20260507231138 21 181 4.8 4.8 0.00 0.00 0.00 62 1016.7
20260507230635 21 216 4.8 8.0 0.00 0.00 0.00 62 1016.4
20260507230132 21 180 3.2 3.2 0.00 0.00 0.00 61 1016.4
20260507225632 22 186 1.6 1.6 0.00 0.00 0.00 59 1016.4
20260507225129 22 166 3.2 4.8 0.00 0.00 0.00 55 1016.4
20260507224624 22 164 0.0 1.6 0.00 0.00 0.00 53 1016.5
20260507224121 22 149 0.0 0.0 0.00 0.00 0.00 53 1016.5
20260507223617 22 158 0.0 0.0 0.00 0.00 0.00 53 1016.5
20260507223114 22 139 0.0 1.6 0.00 0.00 0.00 53 1016.5
20260507222611 22 197 3.2 4.8 0.00 0.00 0.00 51 1016.5
20260507222108 22 160 0.0 0.0 0.00 0.00 0.00 52 1016.6
20260507221604 22 146 0.0 1.6 0.00 0.00 0.00 52 1016.4
20260507221101 22 87 1.6 1.6 0.00 0.00 0.00 52 1016.7
20260507220558 22 126 0.0 1.6 0.00 0.00 0.00 52 1016.8
20260507220055 22 167 0.0 0.0 0.00 0.00 0.00 52 1016.8
20260507215551 23 120 1.6 1.6 0.00 0.00 0.00 52 1016.7
20260507215050 22 83 1.6 3.2 0.00 0.00 0.00 52 1016.6
20260507214546 22 130 0.0 1.6 0.00 0.00 0.00 53 1016.9
20260507214042 22 94 1.6 1.6 0.00 0.00 0.00 51 1017.1
20260507213539 22 136 1.6 3.2 0.00 0.00 0.00 51 1016.8
20260507213036 23 85 0.0 1.6 0.00 0.00 0.00 51 1017.2
20260507212532 23 129 1.6 3.2 0.00 0.00 0.00 51 1017.1
20260507212029 22 109 0.0 1.6 0.00 0.00 0.00 53 1017.1
20260507211526 22 67 1.6 1.6 0.00 0.00 0.00 53 1017.0
20260507211022 22 156 0.0 1.6 0.00 0.00 0.00 54 1017.2
20260507210519 22 109 0.0 1.6 0.00 0.00 0.00 54 1017.2
20260507210016 22 168 0.0 0.0 0.00 0.00 0.00 54 1017.5
20260507205512 23 60 1.6 1.6 0.00 0.00 0.00 53 1017.0
20260507205009 22 205 0.0 0.0 0.00 0.00 0.00 53 1017.3
20260507204505 23 132 3.2 4.8 0.00 0.00 0.00 53 1017.1
20260507204003 23 159 0.0 0.0 0.00 0.00 0.00 53 1017.1
20260507203501 23 107 0.0 1.6 0.00 0.00 0.00 54 1017.2
20260507202957 23 131 3.2 3.2 0.00 0.00 0.00 51 1017.2
20260507202453 22 111 1.6 1.6 0.00 0.00 0.00 53 1017.5
20260507201949 22 63 1.6 1.6 0.00 0.00 0.00 53 1017.6
20260507201449 23 92 1.6 3.2 0.00 0.00 0.00 53 1017.5
20260507200947 23 85 1.6 1.6 0.00 0.00 0.00 53 1017.8
20260507200442 23 146 3.2 3.2 0.00 0.00 0.00 54 1017.8
20260507195938 23 164 3.2 3.2 0.00 0.00 0.00 52 1017.9
20260507195436 23 152 3.2 3.2 0.00 0.00 0.00 53 1017.7
20260507194933 23 96 0.0 0.0 0.00 0.00 0.00 53 1017.9
20260507194430 23 246 0.0 0.0 0.00 0.00 0.00 50 1018.1
20260507193926 23 155 1.6 1.6 0.00 0.00 0.00 50 1018.3
20260507193423 23 309 4.8 4.8 0.00 0.00 0.00 50 1018.1
20260507192920 23 104 1.6 3.2 0.00 0.00 0.00 51 1018.1
20260507192415 23 283 1.6 3.2 0.00 0.00 0.00 51 1018.1
20260507191913 24 63 1.6 1.6 0.00 0.00 0.00 51 1018.4
20260507191409 24 305 4.8 4.8 0.00 0.00 0.00 49 1018.4
20260507190905 23 157 1.6 1.6 0.00 0.00 0.00 52 1018.6
20260507190403 23 69 1.6 3.2 0.00 0.00 0.00 52 1018.5
20260507185902 23 277 1.6 3.2 0.00 0.00 0.00 56 1018.7
20260507185359 23 343 1.6 1.6 0.00 0.00 0.00 52 1018.3
20260507184856 22 132 3.2 3.2 0.00 0.00 0.00 53 1018.6
20260507184354 22 351 6.4 8.0 0.00 0.00 0.00 53 1018.5
20260507183850 22 274 1.6 3.2 0.00 0.00 0.00 52 1018.6
20260507183347 22 15 4.8 4.8 0.00 0.00 0.00 51 1018.6
20260507182845 22 123 3.2 4.8 0.00 0.00 0.00 51 1018.8
20260507182341 22 326 6.4 11.3 0.00 0.00 0.00 51 1018.8
20260507181837 22 278 3.2 4.8 0.00 0.00 0.00 53 1019.1
20260507181333 21 44 3.2 3.2 0.00 0.00 0.00 54 1018.8
20260507180830 21 343 3.2 4.8 0.00 0.00 0.00 53 1019.1
20260507180327 22 35 1.6 1.6 0.00 0.00 0.00 54 1019.3
20260507175822 22 320 4.8 4.8 0.00 0.00 0.00 54 1019.2
20260507175320 21 358 1.6 3.2 0.00 0.00 0.00 56 1019.4
20260507174817 21 261 1.6 1.6 0.00 0.00 0.00 56 1019.4
20260507174315 21 306 4.8 4.8 0.00 0.00 0.00 56 1019.4
20260507173812 21 263 4.8 8.0 0.00 0.00 0.00 56 1019.6
20260507173309 21 69 1.6 1.6 0.00 0.00 0.00 56 1019.9
20260507172805 21 312 1.6 1.6 0.00 0.00 0.00 56 1019.8
20260507172306 21 11 3.2 3.2 0.00 0.00 0.00 56 1020.2
20260507171758 21 246 3.2 3.2 0.00 0.00 0.00 57 1020.1
20260507171255 20 58 3.2 3.2 0.00 0.00 0.00 55 1020.3
20260507170752 20 330 6.4 8.0 0.00 0.00 0.00 56 1020.5
20260507170248 21 308 8.0 11.3 0.00 0.00 0.00 57 1020.7
20260507165744 20 21 0.0 0.0 0.00 0.00 0.00 59 1020.8
20260507165240 21 283 6.4 9.7 0.00 0.00 0.00 57 1020.8
20260507164737 20 100 1.6 1.6 0.00 0.00 0.00 60 1020.7
20260507164234 20 286 3.2 3.2 0.00 0.00 0.00 60 1020.8
20260507163731 20 313 4.8 9.7 0.00 0.00 0.00 60 1020.8
20260507163229 20 303 4.8 4.8 0.00 0.00 0.00 60 1021.1
20260507162724 20 303 1.6 1.6 0.00 0.00 0.00 60 1021.0
20260507162221 19 38 0.0 0.0 0.00 0.00 0.00 63 1021.1
20260507161718 19 58 1.6 3.2 0.00 0.00 0.00 62 1020.8
20260507161214 18 210 1.6 3.2 0.00 0.00 0.00 65 1020.8
20260507160710 18 162 1.6 1.6 0.00 0.00 0.00 64 1021.1
20260507160207 18 292 1.6 3.2 0.00 0.00 0.00 63 1020.9
20260507155702 19 116 0.0 0.0 0.00 0.00 0.00 64 1020.9
20260507155159 18 131 0.0 1.6 0.00 0.00 0.00 65 1021.0
20260507154655 18 178 1.6 1.6 0.00 0.00 0.00 65 1021.2
20260507154153 18 62 1.6 1.6 0.00 0.00 0.00 65 1021.0
20260507153649 18 353 0.0 1.6 0.00 0.00 0.00 65 1021.1
20260507153146 18 262 1.6 3.2 0.00 0.00 0.00 67 1021.1
20260507152642 18 285 1.6 3.2 0.00 0.00 0.00 66 1021.2
20260507152138 18 320 3.2 4.8 0.00 0.00 0.00 64 1021.3
20260507151635 18 14 1.6 1.6 0.00 0.00 0.00 67 1021.2
20260507151132 17 78 0.0 1.6 0.00 0.00 0.00 68 1021.4
20260507150629 17 279 1.6 1.6 0.00 0.00 0.00 71 1021.5
20260507150125 16 31 4.8 4.8 0.00 0.00 0.00 71 1021.4
20260507145626 17 297 6.4 9.7 0.00 0.00 0.00 70 1021.6
20260507145124 17 79 1.6 1.6 0.00 0.00 0.00 71 1021.4
20260507144620 17 303 0.0 1.6 0.00 0.00 0.00 73 1021.4
20260507144118 17 332 0.0 1.6 0.00 0.00 0.00 73 1021.6
20260507143614 16 135 0.0 0.0 0.00 0.00 0.00 74 1021.5
20260507143112 16 127 0.0 1.6 0.00 0.00 0.00 74 1021.6
20260507142607 16 81 0.0 0.0 0.00 0.00 0.00 75 1021.5
20260507142104 16 336 1.6 1.6 0.00 0.00 0.00 76 1021.7
20260507141600 15 320 0.0 1.6 0.00 0.00 0.00 77 1021.5
20260507141057 15 275 1.6 1.6 0.00 0.00 0.00 78 1021.7
20260507140554 16 268 1.6 1.6 0.00 0.00 0.00 77 1021.7
20260507140051 15 310 0.0 0.0 0.00 0.00 0.00 80 1021.9
20260507135548 15 276 1.6 1.6 0.00 0.00 0.00 82 1022.1
20260507135045 14 271 1.6 1.6 0.00 0.00 0.00 85 1022.0
20260507134542 14 276 0.0 0.0 0.00 0.00 0.00 86 1021.9
20260507134037 13 276 0.0 1.6 0.00 0.00 0.00 88 1022.2
20260507133534 13 283 1.6 1.6 0.00 0.00 0.00 89 1022.1
20260507133032 13 263 0.0 1.6 0.00 0.00 0.00 91 1022.1
20260507132528 13 262 1.6 1.6 0.00 0.00 0.00 92 1022.1
20260507132025 13 280 1.6 3.2 0.00 0.00 0.00 93 1022.1
20260507131522 12 255 1.6 1.6 0.00 0.00 0.00 94 1022.1
20260507131019 12 262 3.2 3.2 0.00 0.00 0.00 95 1022.0
20260507130515 12 259 0.0 1.6 0.00 0.00 0.00 96 1021.9
20260507130014 12 262 1.6 1.6 0.00 0.00 0.00 97 1021.9
20260507125512 12 265 0.0 0.0 0.00 0.00 0.00 97 1022.0
20260507125011 11 274 0.0 0.0 0.00 0.00 0.00 97 1022.0
20260507124506 11 275 0.0 0.0 0.00 0.00 0.00 98 1021.6
20260507124003 11 275 0.0 0.0 0.00 0.00 0.00 98 1021.7
20260507123501 11 275 0.0 0.0 0.00 0.00 0.00 98 1021.9
20260507122957 11 275 0.0 0.0 0.00 0.00 0.00 98 1021.8
20260507122453 11 275 0.0 0.0 0.00 0.00 0.00 98 1021.7
20260507121949 11 275 0.0 0.0 0.00 0.00 0.00 98 1021.8
20260507121444 11 275 0.0 0.0 0.00 0.00 0.00 98 1021.4
20260507120941 10 275 0.0 0.0 0.00 0.00 0.00 98 1021.5
20260507120437 10 275 0.0 0.0 0.00 0.00 0.00 98 1021.4
20260507115934 10 275 0.0 0.0 0.00 0.00 0.00 98 1021.3
20260507115430 10 275 0.0 0.0 0.00 0.00 0.00 98 1021.4
20260507114926 10 275 0.0 0.0 0.00 0.00 0.00 98 1021.2
20260507114423 10 275 0.0 0.0 0.00 0.00 0.00 98 1020.9
20260507113920 10 276 0.0 0.0 0.00 0.00 0.00 98 1021.1
20260507113417 10 276 0.0 0.0 0.00 0.00 0.00 98 1021.2
20260507112914 10 276 0.0 0.0 0.00 0.00 0.00 97 1021.3
20260507112412 10 276 0.0 0.0 0.00 0.00 0.00 98 1021.1
20260507111909 10 276 0.0 0.0 0.00 0.00 0.00 97 1021.0
20260507111406 10 276 0.0 0.0 0.00 0.00 0.00 97 1021.0
20260507110902 10 276 0.0 0.0 0.00 0.00 0.00 97 1021.2
20260507110358 11 276 0.0 0.0 0.00 0.00 0.00 97 1020.8
20260507105855 11 276 0.0 0.0 0.00 0.00 0.00 97 1020.5
20260507105352 11 276 0.0 0.0 0.00 0.00 0.00 97 1020.3
20260507104848 11 276 0.0 0.0 0.00 0.00 0.00 97 1020.3
20260507104345 10 276 0.0 0.0 0.00 0.00 0.00 97 1020.3
20260507103841 11 276 0.0 0.0 0.00 0.00 0.00 97 1019.9
20260507103338 10 276 0.0 0.0 0.00 0.00 0.00 97 1019.9
20260507102834 10 276 0.0 0.0 0.00 0.00 0.00 97 1019.9
20260507102331 10 276 0.0 0.0 0.00 0.00 0.00 96 1020.1
20260507101828 10 276 0.0 0.0 0.00 0.00 0.00 96 1019.8
20260507101327 10 276 0.0 0.0 0.00 0.00 0.00 96 1020.1
20260507100825 10 276 0.0 0.0 0.00 0.00 0.00 96 1019.8
20260507100323 11 276 0.0 0.0 0.00 0.00 0.00 96 1019.7
20260507095821 11 276 0.0 0.0 0.00 0.00 0.00 95 1019.7
20260507095317 11 276 0.0 0.0 0.00 0.00 0.00 95 1019.7
20260507094814 11 276 0.0 0.0 0.00 0.00 0.00 95 1019.7
20260507094311 11 276 0.0 0.0 0.00 0.00 0.00 95 1019.5
20260507093808 11 276 0.0 0.0 0.00 0.00 0.00 95 1019.4
20260507093306 11 276 0.0 0.0 0.00 0.00 0.00 94 1019.5
20260507092804 11 276 0.0 0.0 0.00 0.00 0.00 94 1019.4
20260507092300 11 277 0.0 0.0 0.00 0.00 0.00 94 1019.5
20260507091756 11 277 0.0 0.0 0.00 0.00 0.00 93 1019.5
20260507091253 11 278 1.6 1.6 0.00 0.00 0.00 93 1019.4
20260507090753 11 278 0.0 0.0 0.00 0.00 0.00 93 1019.2
20260507090250 11 279 0.0 0.0 0.00 0.00 0.00 93 1019.4
20260507085747 11 282 0.0 0.0 0.00 0.00 0.00 92 1019.5
20260507085244 12 289 0.0 0.0 0.00 0.00 0.00 92 1019.3
20260507084742 12 293 0.0 1.6 0.00 0.00 0.00 91 1019.4
20260507084238 12 296 0.0 0.0 0.00 0.00 0.00 91 1019.2
20260507083735 12 299 0.0 0.0 0.00 0.00 0.00 90 1019.3
20260507083232 12 304 0.0 0.0 0.00 0.00 0.00 90 1019.1
20260507082728 12 310 0.0 0.0 0.00 0.00 0.00 89 1019.3
20260507082224 12 317 0.0 0.0 0.00 0.00 0.00 89 1019.2
20260507081721 12 324 0.0 1.6 0.00 0.00 0.00 89 1019.4
20260507081217 12 356 1.6 1.6 0.00 0.00 0.00 89 1019.1
20260507080714 12 74 0.0 0.0 0.00 0.00 0.00 89 1019.1
20260507080210 12 66 0.0 0.0 0.00 0.00 0.00 88 1018.9
20260507075705 12 339 1.6 1.6 0.00 0.00 0.00 88 1019.2
20260507075202 12 26 0.0 0.0 0.00 0.00 0.00 88 1019.1
20260507074658 12 111 1.6 1.6 0.00 0.00 0.00 88 1018.7
20260507074157 12 86 0.0 0.0 0.00 0.00 0.00 89 1018.7
20260507073653 12 104 0.0 1.6 0.00 0.00 0.00 89 1018.9
20260507073149 12 71 0.0 1.6 0.00 0.00 0.00 89 1018.8
20260507072647 12 77 1.6 3.2 0.00 0.00 0.00 89 1019.0
20260507072144 12 56 0.0 1.6 0.00 0.00 0.00 89 1018.8
20260507071642 12 349 0.0 0.0 0.00 0.00 0.00 89 1019.0
20260507071138 13 124 0.0 0.0 0.00 0.00 0.00 89 1018.7
20260507070635 13 117 0.0 1.6 0.00 0.00 0.00 89 1018.7
20260507070132 13 107 0.0 1.6 0.00 0.00 0.00 89 1018.8
20260507065628 13 110 0.0 1.6 0.00 0.00 0.00 88 1018.9
20260507065125 13 91 0.0 0.0 0.00 0.00 0.00 88 1018.9
20260507064623 13 77 1.6 1.6 0.00 0.00 0.00 88 1018.8
20260507064121 13 72 0.0 0.0 0.00 0.00 0.00 87 1018.9
20260507063618 13 76 0.0 0.0 0.00 0.00 0.00 87 1018.9
20260507063115 13 66 0.0 0.0 0.00 0.00 0.00 87 1018.5
20260507062612 13 75 0.0 0.0 0.00 0.00 0.00 87 1018.5
20260507062110 13 89 0.0 1.6 0.00 0.00 0.00 86 1018.6
20260507061607 13 66 1.6 1.6 0.00 0.00 0.00 86 1018.8
20260507061105 13 63 0.0 1.6 0.00 0.00 0.00 86 1018.8
20260507060603 13 67 0.0 1.6 0.00 0.00 0.00 85 1018.6
20260507060059 13 66 1.6 3.2 0.00 0.00 0.00 85 1018.6
20260507055554 13 83 0.0 0.0 0.00 0.00 0.00 84 1018.7
20260507055051 13 74 0.0 1.6 0.00 0.00 0.00 85 1018.6
20260507054547 13 83 1.6 3.2 0.00 0.00 0.00 85 1018.8
20260507054044 13 85 1.6 1.6 0.00 0.00 0.00 85 1018.6
20260507053542 13 88 0.0 0.0 0.00 0.00 0.00 85 1018.7
20260507053040 13 61 1.6 1.6 0.00 0.00 0.00 84 1018.5
20260507052537 13 44 1.6 3.2 0.00 0.00 0.00 85 1018.6
20260507052034 14 76 1.6 1.6 0.00 0.00 0.00 86 1018.7
20260507051532 14 77 1.6 1.6 0.00 0.00 0.00 85 1018.8
20260507051028 14 62 1.6 3.2 0.00 0.00 0.00 85 1019.0
20260507050525 14 91 1.6 1.6 0.00 0.00 0.00 85 1018.7